Time,TemperatureF,DewpointF,PressureIn,WindDirection,WindDirectionDegrees,WindSpeedMPH,WindSpeedGustMPH,Humidity,HourlyPrecipIn,Conditions,Clouds,dailyrainin,SoftwareType,DateUTC
2013-03-09 00:03:00,40.4,36.0,30.05,SSW,213,4.0,6.0,84,0.00,,---,0.00,VWS V14.01,2013-03-09 08:03:00,
2013-03-09 00:08:00,40.5,36.3,30.04,SSW,213,0.0,6.0,85,0.00,,---,0.00,VWS V14.01,2013-03-09 08:08:00,
2013-03-09 00:13:00,40.4,36.3,30.04,SSW,213,2.0,6.0,85,0.00,,---,0.00,VWS V14.01,2013-03-09 08:13:00,
2013-03-09 00:18:00,40.3,36.2,30.07,SSW,213,2.0,6.0,85,0.00,,---,0.00,VWS V14.01,2013-03-09 08:18:00,
2013-03-09 00:23:00,40.5,36.7,30.06,SSW,213,3.0,6.0,86,0.00,,---,0.00,VWS V14.01,2013-03-09 08:23:00,
2013-03-09 00:29:00,40.6,37.0,30.06,SSW,213,1.0,6.0,87,0.00,,---,0.00,VWS V14.01,2013-03-09 08:29:00,
2013-03-09 00:34:00,40.8,37.2,30.04,SSW,213,1.0,2.0,87,0.00,,---,0.00,VWS V14.01,2013-03-09 08:34:00,
2013-03-09 00:39:00,40.8,37.2,30.07,SSW,213,2.0,5.0,87,0.00,,---,0.00,VWS V14.01,2013-03-09 08:39:00,
2013-03-09 00:44:00,40.9,37.3,30.06,SSW,213,0.0,5.0,87,0.00,,---,0.00,VWS V14.01,2013-03-09 08:44:00,
2013-03-09 00:49:00,41.0,37.4,30.04,SSW,213,0.0,5.0,87,0.00,,---,0.00,VWS V14.01,2013-03-09 08:49:00,
2013-03-09 00:54:00,41.0,37.4,30.07,SSW,213,0.0,5.0,87,0.00,,---,0.00,VWS V14.01,2013-03-09 08:54:00,
2013-03-09 00:59:00,41.1,37.5,30.10,SSW,213,0.0,5.0,87,0.00,,---,0.00,VWS V14.01,2013-03-09 08:59:00,
2013-03-09 01:04:00,41.0,37.1,30.08,SSW,213,1.0,3.0,86,0.00,,---,0.00,VWS V14.01,2013-03-09 09:04:00,
2013-03-09 01:09:00,40.9,37.0,30.08,SSW,213,1.0,3.0,86,0.00,,---,0.00,VWS V14.01,2013-03-09 09:09:00,
2013-03-09 01:14:00,40.9,37.0,30.09,SSW,213,1.0,3.0,86,0.00,,---,0.00,VWS V14.01,2013-03-09 09:14:00,
2013-03-09 01:19:00,40.8,36.7,30.08,SSW,213,0.0,4.0,85,0.00,,---,0.00,VWS V14.01,2013-03-09 09:19:00,
2013-03-09 01:24:00,40.6,36.8,30.09,SSW,213,0.0,4.0,86,0.00,,---,0.00,VWS V14.01,2013-03-09 09:24:00,
2013-03-09 01:30:00,40.7,36.8,30.08,SSW,213,0.0,4.0,86,0.00,,---,0.00,VWS V14.01,2013-03-09 09:30:00,
2013-03-09 01:35:00,40.8,36.9,30.09,SSW,213,0.0,4.0,86,0.00,,---,0.00,VWS V14.01,2013-03-09 09:35:00,
2013-03-09 01:40:00,40.8,36.9,30.09,SSW,213,0.0,4.0,86,0.00,,---,0.00,VWS V14.01,2013-03-09 09:40:00,
2013-03-09 01:45:00,40.8,36.9,30.07,SSW,213,1.0,4.0,86,0.00,,---,0.00,VWS V14.01,2013-03-09 09:45:00,
2013-03-09 01:50:00,40.7,37.1,30.06,SSW,213,1.0,4.0,87,0.00,,---,0.00,VWS V14.01,2013-03-09 09:50:00,
2013-03-09 01:55:00,40.8,36.9,30.07,SSW,213,3.0,4.0,86,0.00,,---,0.00,VWS V14.01,2013-03-09 09:55:00,
2013-03-09 02:00:00,40.7,36.5,30.08,SSW,213,0.0,0.0,85,0.00,,---,0.00,VWS V14.01,2013-03-09 10:00:00,
2013-03-09 02:05:00,40.5,36.3,30.10,SSW,213,3.0,3.0,85,0.00,,---,0.00,VWS V14.01,2013-03-09 10:05:00,
2013-03-09 02:10:00,40.3,36.2,30.10,SSW,213,0.0,3.0,85,0.00,,---,0.00,VWS V14.01,2013-03-09 10:10:00,
2013-03-09 02:15:00,40.3,36.5,30.08,SSW,213,0.0,3.0,86,0.00,,---,0.00,VWS V14.01,2013-03-09 10:15:00,
2013-03-09 02:20:00,40.3,36.5,30.08,SSW,213,0.0,3.0,86,0.00,,---,0.00,VWS V14.01,2013-03-09 10:20:00,
2013-03-09 02:25:00,40.2,36.3,30.09,SSW,213,0.0,3.0,86,0.00,,---,0.00,VWS V14.01,2013-03-09 10:25:00,
2013-03-09 02:30:00,40.1,36.3,30.09,SSW,213,0.0,0.0,86,0.00,,---,0.00,VWS V14.01,2013-03-09 10:30:00,
2013-03-09 02:35:00,40.0,36.2,30.08,SSW,213,1.0,1.0,86,0.00,,---,0.00,VWS V14.01,2013-03-09 10:35:00,
2013-03-09 02:40:00,39.9,36.1,30.10,SSW,213,0.0,3.0,86,0.00,,---,0.00,VWS V14.01,2013-03-09 10:40:00,
2013-03-09 02:45:00,39.7,35.6,30.08,SSW,213,3.0,4.0,85,0.00,,---,0.00,VWS V14.01,2013-03-09 10:45:00,
2013-03-09 02:50:00,39.5,35.4,30.11,SSW,213,3.0,5.0,85,0.00,,---,0.00,VWS V14.01,2013-03-09 10:50:00,
2013-03-09 02:55:00,39.4,35.3,30.07,SSW,213,2.0,5.0,85,0.00,,---,0.00,VWS V14.01,2013-03-09 10:55:00,
2013-03-09 03:01:00,39.2,35.4,30.08,SSW,213,0.0,2.0,86,0.00,,---,0.00,VWS V14.01,2013-03-09 11:01:00,
2013-03-09 03:06:00,39.0,35.2,30.09,SSW,213,0.0,2.0,86,0.00,,---,0.00,VWS V14.01,2013-03-09 11:06:00,
2013-03-09 03:11:00,39.0,35.2,30.08,SSW,213,0.0,3.0,86,0.00,,---,0.00,VWS V14.01,2013-03-09 11:11:00,
2013-03-09 03:16:00,38.9,35.1,30.10,SSW,213,0.0,3.0,86,0.00,,---,0.00,VWS V14.01,2013-03-09 11:16:00,
2013-03-09 03:21:00,38.9,35.1,30.06,SSW,212,0.0,3.0,86,0.00,,---,0.00,VWS V14.01,2013-03-09 11:21:00,
2013-03-09 03:26:00,38.7,34.9,30.09,SSW,213,0.0,3.0,86,0.00,,---,0.00,VWS V14.01,2013-03-09 11:26:00,
2013-03-09 03:31:00,38.7,34.9,30.09,SSW,213,1.0,1.0,86,0.00,,---,0.00,VWS V14.01,2013-03-09 11:31:00,
2013-03-09 03:36:00,38.6,35.1,30.08,SSW,213,0.0,3.0,87,0.00,,---,0.00,VWS V14.01,2013-03-09 11:36:00,
2013-03-09 03:41:00,38.6,35.1,30.09,SSW,213,0.0,3.0,87,0.00,,---,0.00,VWS V14.01,2013-03-09 11:41:00,
2013-03-09 03:46:00,38.6,35.1,30.08,SSW,213,0.0,4.0,87,0.00,,---,0.00,VWS V14.01,2013-03-09 11:46:00,
2013-03-09 03:51:00,38.7,35.2,30.10,SSW,213,0.0,4.0,87,0.00,,---,0.00,VWS V14.01,2013-03-09 11:51:00,
2013-03-09 03:56:00,38.6,35.1,30.08,SSW,213,0.0,4.0,87,0.00,,---,0.00,VWS V14.01,2013-03-09 11:56:00,
2013-03-09 04:01:00,38.5,35.0,30.11,SSW,213,0.0,1.0,87,0.00,,---,0.00,VWS V14.01,2013-03-09 12:01:00,
2013-03-09 04:06:00,38.5,35.0,30.13,SSW,213,1.0,3.0,87,0.00,,---,0.00,VWS V14.01,2013-03-09 12:06:00,
2013-03-09 04:11:00,38.3,34.8,30.11,SSW,213,1.0,4.0,87,0.00,,---,0.00,VWS V14.01,2013-03-09 12:11:00,
2013-03-09 04:16:00,38.2,34.4,30.13,SSW,213,0.0,4.0,86,0.00,,---,0.00,VWS V14.01,2013-03-09 12:16:00,
2013-03-09 04:21:00,38.1,34.3,30.11,SSW,213,1.0,4.0,86,0.00,,---,0.00,VWS V14.01,2013-03-09 12:21:00,
2013-03-09 04:27:00,37.9,34.1,30.12,SSW,213,0.0,4.0,86,0.00,,---,0.00,VWS V14.01,2013-03-09 12:27:00,
2013-03-09 04:32:00,37.6,33.8,30.13,SSW,213,0.0,2.0,86,0.00,,---,0.00,VWS V14.01,2013-03-09 12:32:00,
2013-03-09 04:37:00,37.7,34.2,30.13,SSW,213,1.0,2.0,87,0.00,,---,0.00,VWS V14.01,2013-03-09 12:37:00,
2013-03-09 04:42:00,37.7,34.2,30.15,SSW,213,2.0,2.0,87,0.00,,---,0.00,VWS V14.01,2013-03-09 12:42:00,
2013-03-09 04:47:00,37.5,34.0,30.15,SSW,213,2.0,3.0,87,0.00,,---,0.00,VWS V14.01,2013-03-09 12:47:00,
2013-03-09 04:52:00,37.4,34.2,30.14,SSW,213,0.0,3.0,88,0.00,,---,0.00,VWS V14.01,2013-03-09 12:52:00,
2013-03-09 04:57:00,37.6,34.4,30.14,SSW,213,0.0,4.0,88,0.00,,---,0.00,VWS V14.01,2013-03-09 12:57:00,
2013-03-09 05:02:00,37.7,34.8,30.15,SSW,213,2.0,3.0,89,0.00,,---,0.00,VWS V14.01,2013-03-09 13:02:00,
2013-03-09 05:07:00,37.9,34.7,30.16,SSW,213,3.0,5.0,88,0.00,,---,0.00,VWS V14.01,2013-03-09 13:07:00,
2013-03-09 05:12:00,38.1,34.9,30.16,SSW,213,3.0,5.0,88,0.00,,---,0.00,VWS V14.01,2013-03-09 13:12:00,
2013-03-09 05:17:00,38.3,35.6,30.14,SSW,213,5.0,6.0,90,0.00,,---,0.00,VWS V14.01,2013-03-09 13:17:00,
2013-03-09 05:22:00,38.7,36.3,30.16,SSW,213,5.0,6.0,91,0.00,,---,0.00,VWS V14.01,2013-03-09 13:22:00,
2013-03-09 05:27:00,39.1,36.7,30.17,SSW,212,3.0,6.0,91,0.00,,---,0.00,VWS V14.01,2013-03-09 13:27:00,
2013-03-09 05:32:00,39.2,36.5,30.15,SSW,212,1.0,2.0,90,0.00,,---,0.00,VWS V14.01,2013-03-09 13:32:00,
2013-03-09 05:37:00,39.0,36.0,30.17,SSW,213,2.0,5.0,89,0.00,,---,0.00,VWS V14.01,2013-03-09 13:37:00,
2013-03-09 05:42:00,38.8,35.3,30.16,SSW,212,3.0,5.0,87,0.00,,---,0.00,VWS V14.01,2013-03-09 13:42:00,
2013-03-09 05:48:00,38.7,35.5,30.17,SSW,213,0.0,5.0,88,0.00,,---,0.00,VWS V14.01,2013-03-09 13:48:00,
2013-03-09 05:53:00,38.5,35.0,30.17,SSW,213,0.0,5.0,87,0.00,,---,0.00,VWS V14.01,2013-03-09 13:53:00,
2013-03-09 05:58:00,38.3,35.1,30.19,SSW,213,2.0,5.0,88,0.00,,---,0.00,VWS V14.01,2013-03-09 13:58:00,
2013-03-09 06:03:00,38.2,35.0,30.18,SSW,213,0.0,2.0,88,0.00,,---,0.00,VWS V14.01,2013-03-09 14:03:00,
2013-03-09 06:08:00,38.2,35.0,30.19,SSW,213,1.0,4.0,88,0.00,,---,0.00,VWS V14.01,2013-03-09 14:08:00,
2013-03-09 06:13:00,38.3,35.3,30.20,SSW,213,4.0,5.0,89,0.00,,---,0.00,VWS V14.01,2013-03-09 14:13:00,
2013-03-09 06:18:00,38.5,35.8,30.18,SSW,212,0.0,5.0,90,0.00,,---,0.00,VWS V14.01,2013-03-09 14:18:00,
2013-03-09 06:23:00,38.3,35.3,30.20,SSW,213,0.0,5.0,89,0.00,,---,0.00,VWS V14.01,2013-03-09 14:23:00,
2013-03-09 06:28:00,37.9,34.4,30.19,SSW,213,0.0,5.0,87,0.00,,---,0.00,VWS V14.01,2013-03-09 14:28:00,
2013-03-09 06:33:00,37.6,34.1,30.19,SSW,213,1.0,2.0,87,0.00,,---,0.00,VWS V14.01,2013-03-09 14:33:00,
2013-03-09 06:38:00,37.7,34.5,30.19,SSW,212,1.0,2.0,88,0.00,,---,0.00,VWS V14.01,2013-03-09 14:38:00,
2013-03-09 06:43:00,37.7,34.8,30.20,SSW,213,1.0,2.0,89,0.00,,---,0.00,VWS V14.01,2013-03-09 14:43:00,
2013-03-09 06:48:00,37.8,34.6,30.19,SSW,213,0.0,2.0,88,0.00,,---,0.00,VWS V14.01,2013-03-09 14:48:00,
2013-03-09 06:53:00,37.8,34.6,30.19,SSW,213,2.0,4.0,88,0.00,,---,0.00,VWS V14.01,2013-03-09 14:53:00,
2013-03-09 06:58:00,37.8,34.6,30.21,SSW,213,0.0,4.0,88,0.00,,---,0.00,VWS V14.01,2013-03-09 14:58:00,
2013-03-09 07:04:00,37.9,35.0,30.21,SSW,213,0.0,3.0,89,0.00,,---,0.00,VWS V14.01,2013-03-09 15:04:00,
2013-03-09 07:09:00,37.8,34.9,30.21,SSW,213,0.0,3.0,89,0.00,,---,0.00,VWS V14.01,2013-03-09 15:09:00,
2013-03-09 07:14:00,38.1,35.2,30.20,SSW,213,0.0,3.0,89,0.00,,---,0.00,VWS V14.01,2013-03-09 15:14:00,
2013-03-09 07:19:00,38.4,35.7,30.21,SSW,212,0.0,3.0,90,0.00,,---,0.00,VWS V14.01,2013-03-09 15:19:00,
2013-03-09 07:24:00,38.6,35.9,30.20,SSW,213,0.0,3.0,90,0.00,,---,0.00,VWS V14.01,2013-03-09 15:24:00,
2013-03-09 07:29:00,39.0,36.6,30.20,SSW,212,0.0,3.0,91,0.00,,---,0.00,VWS V14.01,2013-03-09 15:29:00,
2013-03-09 07:34:00,39.4,37.0,30.22,SSW,212,0.0,2.0,91,0.00,,---,0.00,VWS V14.01,2013-03-09 15:34:00,
2013-03-09 07:39:00,40.0,37.9,30.20,SSW,212,0.0,3.0,92,0.00,,---,0.00,VWS V14.01,2013-03-09 15:39:00,
2013-03-09 07:44:00,40.7,38.6,30.21,SSW,213,0.0,3.0,92,0.00,,---,0.00,VWS V14.01,2013-03-09 15:44:00,
2013-03-09 07:49:00,41.1,39.0,30.23,SSW,212,0.0,3.0,92,0.00,,---,0.00,VWS V14.01,2013-03-09 15:49:00,
2013-03-09 07:54:00,41.4,39.2,30.21,SSW,212,0.0,3.0,92,0.00,,---,0.00,VWS V14.01,2013-03-09 15:54:00,
2013-03-09 07:59:00,41.7,39.5,30.23,SSW,213,1.0,3.0,92,0.00,,---,0.00,VWS V14.01,2013-03-09 15:59:00,
2013-03-09 08:04:00,42.1,40.0,30.24,SSW,212,1.0,2.0,92,0.00,,---,0.00,VWS V14.01,2013-03-09 16:04:00,
2013-03-09 08:09:00,42.6,40.2,30.22,SSW,213,1.0,3.0,91,0.00,,---,0.00,VWS V14.01,2013-03-09 16:09:00,
2013-03-09 08:15:00,43.0,40.8,30.23,SSW,213,1.0,3.0,92,0.00,,---,0.00,VWS V14.01,2013-03-09 16:15:00,
2013-03-09 08:20:00,43.5,41.0,30.23,SSW,213,0.0,3.0,91,0.00,,---,0.00,VWS V14.01,2013-03-09 16:20:00,
2013-03-09 08:25:00,43.9,40.9,30.25,SSW,213,1.0,3.0,89,0.00,,---,0.00,VWS V14.01,2013-03-09 16:25:00,
2013-03-09 08:30:00,44.3,41.0,30.25,SSW,213,0.0,0.0,88,0.00,,---,0.00,VWS V14.01,2013-03-09 16:30:00,
2013-03-09 08:35:00,44.8,41.2,30.24,SSW,213,1.0,3.0,87,0.00,,---,0.00,VWS V14.01,2013-03-09 16:35:00,
2013-03-09 08:40:00,45.3,41.1,30.23,SSW,213,0.0,3.0,85,0.00,,---,0.00,VWS V14.01,2013-03-09 16:40:00,
2013-03-09 08:45:00,45.6,40.7,30.24,SSW,213,0.0,3.0,83,0.00,,---,0.00,VWS V14.01,2013-03-09 16:45:00,
2013-03-09 08:50:00,46.0,40.8,30.24,SSW,213,1.0,3.0,82,0.00,,---,0.00,VWS V14.01,2013-03-09 16:50:00,
2013-03-09 08:55:00,46.3,41.1,30.23,SSW,213,0.0,3.0,82,0.00,,---,0.00,VWS V14.01,2013-03-09 16:55:00,
2013-03-09 09:00:00,46.7,41.2,30.22,SSW,213,0.0,0.0,81,0.00,,---,0.00,VWS V14.01,2013-03-09 17:00:00,
2013-03-09 09:05:00,47.1,40.6,30.26,SSW,213,0.0,2.0,78,0.00,,---,0.00,VWS V14.01,2013-03-09 17:05:00,
2013-03-09 09:10:00,47.6,40.8,30.23,SSW,213,0.0,3.0,77,0.00,,---,0.00,VWS V14.01,2013-03-09 17:10:00,
2013-03-09 09:15:00,48.2,41.3,30.24,SSW,213,2.0,3.0,77,0.00,,---,0.00,VWS V14.01,2013-03-09 17:15:00,
2013-03-09 09:20:00,48.8,40.9,30.24,NW,316,1.0,5.0,74,0.00,,---,0.00,VWS V14.01,2013-03-09 17:20:00,
2013-03-09 09:26:00,49.4,40.8,30.25,North,359,2.0,8.0,72,0.00,,---,0.00,VWS V14.01,2013-03-09 17:26:00,
2013-03-09 09:31:00,50.1,40.7,30.23,NNW,327,2.0,6.0,70,0.00,,---,0.00,VWS V14.01,2013-03-09 17:31:00,
2013-03-09 09:36:00,50.7,40.5,30.24,NNW,334,5.0,6.0,68,0.00,,---,0.00,VWS V14.01,2013-03-09 17:36:00,
2013-03-09 09:41:00,51.3,41.1,30.26,NNW,335,1.0,6.0,68,0.00,,---,0.00,VWS V14.01,2013-03-09 17:41:00,
2013-03-09 09:46:00,51.8,40.4,30.25,NNW,340,3.0,7.0,65,0.00,,---,0.00,VWS V14.01,2013-03-09 17:46:00,
2013-03-09 09:51:00,52.3,40.5,30.24,North,356,3.0,7.0,64,0.00,,---,0.00,VWS V14.01,2013-03-09 17:51:00,
2013-03-09 09:56:00,52.7,40.1,30.24,North,355,7.0,7.0,62,0.00,,---,0.00,VWS V14.01,2013-03-09 17:56:00,
2013-03-09 10:01:00,53.0,39.9,30.25,NNW,344,2.0,7.0,61,0.00,,---,0.00,VWS V14.01,2013-03-09 18:01:00,
2013-03-09 10:06:00,53.4,40.3,30.23,NNW,342,3.0,7.0,61,0.00,,---,0.00,VWS V14.01,2013-03-09 18:06:00,
2013-03-09 10:11:00,53.6,39.6,30.24,NNW,347,2.0,7.0,59,0.00,,---,0.00,VWS V14.01,2013-03-09 18:11:00,
2013-03-09 10:16:00,54.0,39.1,30.25,North,352,7.0,9.0,57,0.00,,---,0.00,VWS V14.01,2013-03-09 18:16:00,
2013-03-09 10:21:00,54.5,39.1,30.26,NNW,341,2.0,9.0,56,0.00,,---,0.00,VWS V14.01,2013-03-09 18:21:00,
2013-03-09 10:26:00,54.8,39.0,30.25,NW,317,4.0,9.0,55,0.00,,---,0.00,VWS V14.01,2013-03-09 18:26:00,
2013-03-09 10:31:00,55.2,38.9,30.24,NNW,332,2.0,6.0,54,0.00,,---,0.00,VWS V14.01,2013-03-09 18:31:00,
2013-03-09 10:36:00,55.9,39.0,30.24,North,359,2.0,9.0,53,0.00,,---,0.00,VWS V14.01,2013-03-09 18:36:00,
2013-03-09 10:42:00,56.3,38.9,30.26,NW,326,4.0,9.0,52,0.00,,---,0.00,VWS V14.01,2013-03-09 18:42:00,
2013-03-09 10:47:00,56.2,39.3,30.24,WNW,301,2.0,10.0,53,0.00,,---,0.00,VWS V14.01,2013-03-09 18:47:00,
2013-03-09 10:52:00,56.6,39.7,30.27,NNW,339,6.0,10.0,53,0.00,,---,0.00,VWS V14.01,2013-03-09 18:52:00,
2013-03-09 10:57:00,56.8,39.4,30.23,NNW,329,3.0,10.0,52,0.00,,---,0.00,VWS V14.01,2013-03-09 18:57:00,
2013-03-09 11:02:00,57.2,39.2,30.25,North,354,5.0,9.0,51,0.00,,---,0.00,VWS V14.01,2013-03-09 19:02:00,
2013-03-09 11:07:00,57.4,39.9,30.24,NNW,345,12.0,12.0,52,0.00,,---,0.00,VWS V14.01,2013-03-09 19:07:00,
2013-03-09 11:12:00,57.6,40.1,30.26,North,351,5.0,12.0,52,0.00,,---,0.00,VWS V14.01,2013-03-09 19:12:00,
2013-03-09 11:17:00,57.7,38.7,30.27,NNW,347,5.0,16.0,49,0.00,,---,0.00,VWS V14.01,2013-03-09 19:17:00,
2013-03-09 11:22:00,58.0,39.0,30.27,NNW,341,3.0,16.0,49,0.00,,---,0.00,VWS V14.01,2013-03-09 19:22:00,
2013-03-09 11:27:00,58.4,38.8,30.25,NNW,337,4.0,16.0,48,0.00,,---,0.00,VWS V14.01,2013-03-09 19:27:00,
2013-03-09 11:32:00,58.5,38.4,30.27,NNW,341,7.0,7.0,47,0.00,,---,0.00,VWS V14.01,2013-03-09 19:32:00,
2013-03-09 11:37:00,58.8,40.2,30.27,NNW,348,8.0,8.0,50,0.00,,---,0.00,VWS V14.01,2013-03-09 19:37:00,
2013-03-09 11:42:00,59.2,40.1,30.28,NNW,341,6.0,10.0,49,0.00,,---,0.00,VWS V14.01,2013-03-09 19:42:00,
2013-03-09 11:47:00,59.5,39.3,30.25,North,350,5.0,11.0,47,0.00,,---,0.00,VWS V14.01,2013-03-09 19:47:00,
2013-03-09 11:52:00,59.9,39.6,30.26,NNW,329,9.0,13.0,47,0.00,,---,0.00,VWS V14.01,2013-03-09 19:52:00,
2013-03-09 11:57:00,60.2,38.8,30.24,NNW,328,4.0,13.0,45,0.00,,---,0.00,VWS V14.01,2013-03-09 19:57:00,
2013-03-09 12:02:00,60.4,39.5,30.27,NNW,343,5.0,11.0,46,0.00,,---,0.00,VWS V14.01,2013-03-09 20:02:00,
2013-03-09 12:07:00,60.8,38.8,30.25,North,0,4.0,11.0,44,0.00,,---,0.00,VWS V14.01,2013-03-09 20:07:00,
2013-03-09 12:12:00,61.0,37.2,30.25,NNW,339,6.0,11.0,41,0.00,,---,0.00,VWS V14.01,2013-03-09 20:12:00,
2013-03-09 12:18:00,61.3,38.0,30.25,NW,320,5.0,13.0,42,0.00,,---,0.00,VWS V14.01,2013-03-09 20:18:00,
2013-03-09 12:23:00,61.7,37.2,30.24,NW,306,5.0,13.0,40,0.00,,---,0.00,VWS V14.01,2013-03-09 20:23:00,
2013-03-09 12:28:00,61.9,36.0,30.26,North,357,2.0,14.0,38,0.00,,---,0.00,VWS V14.01,2013-03-09 20:28:00,
2013-03-09 12:33:00,62.1,37.5,30.25,NNW,328,5.0,6.0,40,0.00,,---,0.00,VWS V14.01,2013-03-09 20:33:00,
2013-03-09 12:38:00,62.4,39.0,30.25,NNW,341,12.0,12.0,42,0.00,,---,0.00,VWS V14.01,2013-03-09 20:38:00,
2013-03-09 12:43:00,62.4,40.2,30.23,NNW,342,2.0,12.0,44,0.00,,---,0.00,VWS V14.01,2013-03-09 20:43:00,
2013-03-09 12:48:00,62.8,38.1,30.25,North,9,3.0,12.0,40,0.00,,---,0.00,VWS V14.01,2013-03-09 20:48:00,
2013-03-09 12:53:00,62.8,36.8,30.26,North,351,2.0,12.0,38,0.00,,---,0.00,VWS V14.01,2013-03-09 20:53:00,
2013-03-09 12:58:00,62.8,36.8,30.25,NNW,336,10.0,12.0,38,0.00,,---,0.00,VWS V14.01,2013-03-09 20:58:00,
2013-03-09 13:03:00,62.9,36.2,30.27,North,1,2.0,11.0,37,0.00,,---,0.00,VWS V14.01,2013-03-09 21:03:00,
2013-03-09 13:08:00,62.9,36.2,30.25,North,358,8.0,11.0,37,0.00,,---,0.00,VWS V14.01,2013-03-09 21:08:00,
2013-03-09 13:13:00,63.0,36.3,30.25,North,0,2.0,11.0,37,0.00,,---,0.00,VWS V14.01,2013-03-09 21:13:00,
2013-03-09 13:18:00,63.2,38.5,30.25,NNW,347,3.0,11.0,40,0.00,,---,0.00,VWS V14.01,2013-03-09 21:18:00,
2013-03-09 13:23:00,63.4,36.7,30.25,North,350,5.0,12.0,37,0.00,,---,0.00,VWS V14.01,2013-03-09 21:23:00,
2013-03-09 13:28:00,63.3,35.9,30.23,NNW,341,3.0,12.0,36,0.00,,---,0.00,VWS V14.01,2013-03-09 21:28:00,
2013-03-09 13:33:00,63.3,36.6,30.23,North,359,3.0,11.0,37,0.00,,---,0.00,VWS V14.01,2013-03-09 21:33:00,
2013-03-09 13:38:00,63.5,37.5,30.23,North,351,6.0,11.0,38,0.00,,---,0.00,VWS V14.01,2013-03-09 21:38:00,
2013-03-09 13:44:00,63.7,37.0,30.23,NNW,342,7.0,11.0,37,0.00,,---,0.00,VWS V14.01,2013-03-09 21:44:00,
2013-03-09 13:49:00,63.9,37.1,30.25,NNW,345,4.0,11.0,37,0.00,,---,0.00,VWS V14.01,2013-03-09 21:49:00,
2013-03-09 13:54:00,64.0,37.2,30.24,North,352,6.0,12.0,37,0.00,,---,0.00,VWS V14.01,2013-03-09 21:54:00,
2013-03-09 13:59:00,64.0,37.2,30.25,NNW,345,6.0,12.0,37,0.00,,---,0.00,VWS V14.01,2013-03-09 21:59:00,
2013-03-09 14:04:00,64.2,37.4,30.24,NNW,335,4.0,14.0,37,0.00,,---,0.00,VWS V14.01,2013-03-09 22:04:00,
2013-03-09 14:09:00,64.2,36.0,30.24,NNW,343,9.0,18.0,35,0.00,,---,0.00,VWS V14.01,2013-03-09 22:09:00,
2013-03-09 14:14:00,64.3,36.8,30.26,NNW,335,5.0,18.0,36,0.00,,---,0.00,VWS V14.01,2013-03-09 22:14:00,
2013-03-09 14:19:00,64.4,37.6,30.24,North,350,4.0,18.0,37,0.00,,---,0.00,VWS V14.01,2013-03-09 22:19:00,
2013-03-09 14:24:00,64.6,38.4,30.24,North,352,6.0,18.0,38,0.00,,---,0.00,VWS V14.01,2013-03-09 22:24:00,
2013-03-09 14:29:00,65.1,37.5,30.24,North,350,6.0,18.0,36,0.00,,---,0.00,VWS V14.01,2013-03-09 22:29:00,
2013-03-09 14:34:00,65.4,37.1,30.24,NNW,345,6.0,11.0,35,0.00,,---,0.00,VWS V14.01,2013-03-09 22:34:00,
2013-03-09 14:39:00,65.4,38.5,30.23,NNW,339,8.0,11.0,37,0.00,,---,0.00,VWS V14.01,2013-03-09 22:39:00,
2013-03-09 14:45:00,65.5,36.4,30.25,NNW,332,5.0,11.0,34,0.00,,---,0.00,VWS V14.01,2013-03-09 22:45:00,
2013-03-09 14:50:00,65.6,37.2,30.24,North,359,4.0,11.0,35,0.00,,---,0.00,VWS V14.01,2013-03-09 22:50:00,
2013-03-09 14:55:00,65.8,37.4,30.25,NNW,343,3.0,11.0,35,0.00,,---,0.00,VWS V14.01,2013-03-09 22:55:00,
2013-03-09 15:00:00,65.9,36.8,30.25,North,357,5.0,5.0,34,0.00,,---,0.00,VWS V14.01,2013-03-09 23:00:00,
2013-03-09 15:05:00,66.2,38.5,30.24,NNW,340,5.0,12.0,36,0.00,,---,0.00,VWS V14.01,2013-03-09 23:05:00,
2013-03-09 15:10:00,66.2,36.3,30.24,North,351,5.0,12.0,33,0.00,,---,0.00,VWS V14.01,2013-03-09 23:10:00,
2013-03-09 15:15:00,66.2,37.0,30.24,North,349,3.0,12.0,34,0.00,,---,0.00,VWS V14.01,2013-03-09 23:15:00,
2013-03-09 15:20:00,66.6,38.1,30.24,SSW,207,3.0,12.0,35,0.00,,---,0.00,VWS V14.01,2013-03-09 23:20:00,
2013-03-09 15:25:00,67.3,37.2,30.24,NNW,336,5.0,12.0,33,0.00,,---,0.00,VWS V14.01,2013-03-09 23:25:00,
2013-03-09 15:30:00,67.6,36.7,30.24,NNW,346,5.0,8.0,32,0.00,,---,0.00,VWS V14.01,2013-03-09 23:30:00,
2013-03-09 15:35:00,67.4,38.1,30.21,NNW,328,5.0,11.0,34,0.00,,---,0.00,VWS V14.01,2013-03-09 23:35:00,
2013-03-09 15:40:00,67.6,36.7,30.22,NNW,348,5.0,11.0,32,0.00,,---,0.00,VWS V14.01,2013-03-09 23:40:00,
2013-03-09 15:45:00,68.2,38.8,30.22,NNW,327,3.0,11.0,34,0.00,,---,0.00,VWS V14.01,2013-03-09 23:45:00,
2013-03-09 15:50:00,68.1,41.6,30.23,West,281,3.0,11.0,38,0.00,,---,0.00,VWS V14.01,2013-03-09 23:50:00,
2013-03-09 15:56:00,68.2,43.6,30.25,WSW,258,3.0,11.0,41,0.00,,---,0.00,VWS V14.01,2013-03-09 23:56:00,
2013-03-09 16:01:00,68.2,42.3,30.23,SSW,212,5.0,6.0,39,0.00,,---,0.00,VWS V14.01,2013-03-10 00:01:00,
2013-03-09 16:06:00,68.4,43.8,30.24,SW,214,3.0,7.0,41,0.00,,---,0.00,VWS V14.01,2013-03-10 00:06:00,
2013-03-09 16:11:00,68.2,42.3,30.24,North,357,1.0,10.0,39,0.00,,---,0.00,VWS V14.01,2013-03-10 00:11:00,
2013-03-09 16:16:00,68.3,42.4,30.23,NNW,341,2.0,10.0,39,0.00,,---,0.00,VWS V14.01,2013-03-10 00:16:00,
2013-03-09 16:21:00,68.6,42.7,30.22,WSW,256,2.0,10.0,39,0.00,,---,0.00,VWS V14.01,2013-03-10 00:21:00,
2013-03-09 16:26:00,69.0,43.0,30.24,NNW,341,2.0,10.0,39,0.00,,---,0.00,VWS V14.01,2013-03-10 00:26:00,
2013-03-09 16:31:00,68.9,43.6,30.25,NNW,327,2.0,5.0,40,0.00,,---,0.00,VWS V14.01,2013-03-10 00:31:00,
2013-03-09 16:36:00,68.4,41.8,30.24,NNW,348,2.0,8.0,38,0.00,,---,0.00,VWS V14.01,2013-03-10 00:36:00,
2013-03-09 16:42:00,68.8,42.9,30.24,North,351,2.0,8.0,39,0.00,,---,0.00,VWS V14.01,2013-03-10 00:42:00,
2013-03-09 16:47:00,69.2,43.2,30.25,NNW,330,3.0,8.0,39,0.00,,---,0.00,VWS V14.01,2013-03-10 00:47:00,
2013-03-09 16:52:00,69.1,43.1,30.24,WSW,247,1.0,8.0,39,0.00,,---,0.00,VWS V14.01,2013-03-10 00:52:00,
2013-03-09 16:57:00,69.2,41.8,30.23,SW,222,3.0,8.0,37,0.00,,---,0.00,VWS V14.01,2013-03-10 00:57:00,
2013-03-09 17:02:00,69.0,42.4,30.24,SW,222,1.0,5.0,38,0.00,,---,0.00,VWS V14.01,2013-03-10 01:02:00,
2013-03-09 17:07:00,67.8,42.0,30.25,NW,314,5.0,6.0,39,0.00,,---,0.00,VWS V14.01,2013-03-10 01:07:00,
2013-03-09 17:12:00,66.4,42.0,30.22,NNW,331,2.0,11.0,41,0.00,,---,0.00,VWS V14.01,2013-03-10 01:12:00,
2013-03-09 17:17:00,65.6,43.1,30.25,NNW,337,2.0,11.0,44,0.00,,---,0.00,VWS V14.01,2013-03-10 01:17:00,
2013-03-09 17:22:00,64.8,42.4,30.23,WSW,257,2.0,11.0,44,0.00,,---,0.00,VWS V14.01,2013-03-10 01:22:00,
2013-03-09 17:27:00,64.1,42.3,30.25,NW,321,3.0,11.0,45,0.00,,---,0.00,VWS V14.01,2013-03-10 01:27:00,
2013-03-09 17:32:00,63.5,42.4,30.26,NNW,337,4.0,5.0,46,0.00,,---,0.00,VWS V14.01,2013-03-10 01:32:00,
2013-03-09 17:37:00,62.9,41.8,30.25,NNW,339,3.0,5.0,46,0.00,,---,0.00,VWS V14.01,2013-03-10 01:37:00,
2013-03-09 17:42:00,62.7,41.6,30.24,NNW,345,5.0,5.0,46,0.00,,---,0.00,VWS V14.01,2013-03-10 01:42:00,
2013-03-09 17:47:00,62.3,41.3,30.23,North,349,3.0,6.0,46,0.00,,---,0.00,VWS V14.01,2013-03-10 01:47:00,
2013-03-09 17:53:00,61.9,41.5,30.26,North,355,4.0,6.0,47,0.00,,---,0.00,VWS V14.01,2013-03-10 01:53:00,
2013-03-09 17:58:00,61.6,41.7,30.25,North,352,3.0,7.0,48,0.00,,---,0.00,VWS V14.01,2013-03-10 01:58:00,
2013-03-09 18:03:00,61.3,40.9,30.27,NNW,348,4.0,5.0,47,0.00,,---,0.00,VWS V14.01,2013-03-10 02:03:00,
2013-03-09 18:08:00,61.0,40.7,30.23,North,349,2.0,5.0,47,0.00,,---,0.00,VWS V14.01,2013-03-10 02:08:00,
2013-03-09 18:13:00,60.8,41.0,30.26,North,349,3.0,5.0,48,0.00,,---,0.00,VWS V14.01,2013-03-10 02:13:00,
2013-03-09 18:18:00,60.4,41.7,30.28,North,352,4.0,6.0,50,0.00,,---,0.00,VWS V14.01,2013-03-10 02:18:00,
2013-03-09 18:23:00,59.9,41.8,30.27,NNW,346,4.0,6.0,51,0.00,,---,0.00,VWS V14.01,2013-03-10 02:23:00,
2013-03-09 18:28:00,59.3,41.7,30.25,NNW,336,3.0,6.0,52,0.00,,---,0.00,VWS V14.01,2013-03-10 02:28:00,
2013-03-09 18:33:00,58.8,41.7,30.26,NNW,337,3.0,4.0,53,0.00,,---,0.00,VWS V14.01,2013-03-10 02:33:00,
2013-03-09 18:38:00,58.2,41.7,30.28,NNW,342,4.0,6.0,54,0.00,,---,0.00,VWS V14.01,2013-03-10 02:38:00,
2013-03-09 18:43:00,57.9,41.8,30.28,NNW,342,3.0,6.0,55,0.00,,---,0.00,VWS V14.01,2013-03-10 02:43:00,
2013-03-09 18:48:00,57.6,42.0,30.26,NNW,342,5.0,6.0,56,0.00,,---,0.00,VWS V14.01,2013-03-10 02:48:00,
2013-03-09 18:54:00,57.3,41.8,30.27,NNW,343,1.0,6.0,56,0.00,,---,0.00,VWS V14.01,2013-03-10 02:54:00,
2013-03-09 18:59:00,57.1,41.6,30.28,NNW,343,3.0,6.0,56,0.00,,---,0.00,VWS V14.01,2013-03-10 02:59:00,
2013-03-09 19:04:00,57.0,41.9,30.27,NNW,342,2.0,4.0,57,0.00,,---,0.00,VWS V14.01,2013-03-10 03:04:00,
2013-03-09 19:09:00,56.4,41.8,30.29,NNW,342,3.0,4.0,58,0.00,,---,0.00,VWS V14.01,2013-03-10 03:09:00,
2013-03-09 19:14:00,55.9,41.8,30.26,NNW,342,2.0,5.0,59,0.00,,---,0.00,VWS V14.01,2013-03-10 03:14:00,
2013-03-09 19:19:00,55.7,41.2,30.26,NNW,342,1.0,5.0,58,0.00,,---,0.00,VWS V14.01,2013-03-10 03:19:00,
2013-03-09 19:24:00,55.4,41.3,30.24,NNW,342,1.0,5.0,59,0.00,,---,0.00,VWS V14.01,2013-03-10 03:24:00,
2013-03-09 19:29:00,55.0,41.8,30.25,NNW,342,1.0,5.0,61,0.00,,---,0.00,VWS V14.01,2013-03-10 03:29:00,
2013-03-09 19:34:00,54.6,41.4,30.24,NNW,342,0.0,3.0,61,0.00,,---,0.00,VWS V14.01,2013-03-10 03:34:00,
2013-03-09 19:39:00,54.4,41.2,30.25,NNW,342,0.0,3.0,61,0.00,,---,0.00,VWS V14.01,2013-03-10 03:39:00,
2013-03-09 19:44:00,54.2,41.5,30.27,NNW,342,0.0,3.0,62,0.00,,---,0.00,VWS V14.01,2013-03-10 03:44:00,
2013-03-09 19:49:00,53.9,41.2,30.25,NNW,342,0.0,3.0,62,0.00,,---,0.00,VWS V14.01,2013-03-10 03:49:00,
2013-03-09 19:54:00,53.8,41.1,30.28,NNW,342,0.0,3.0,62,0.00,,---,0.00,VWS V14.01,2013-03-10 03:54:00,
2013-03-09 19:59:00,53.5,40.8,30.26,NNW,342,0.0,3.0,62,0.00,,---,0.00,VWS V14.01,2013-03-10 03:59:00,
2013-03-09 20:04:00,53.2,40.5,30.28,NNW,342,0.0,0.0,62,0.00,,---,0.00,VWS V14.01,2013-03-10 04:04:00,
2013-03-09 20:09:00,53.0,41.2,30.26,NNW,342,0.0,1.0,64,0.00,,---,0.00,VWS V14.01,2013-03-10 04:09:00,
2013-03-09 20:14:00,52.7,40.9,30.28,NNW,342,0.0,1.0,64,0.00,,---,0.00,VWS V14.01,2013-03-10 04:14:00,
2013-03-09 20:19:00,52.3,40.5,30.29,NNW,342,0.0,1.0,64,0.00,,---,0.00,VWS V14.01,2013-03-10 04:19:00,
2013-03-09 20:24:00,52.0,40.6,30.28,NNW,342,0.0,1.0,65,0.00,,---,0.00,VWS V14.01,2013-03-10 04:24:00,
2013-03-09 20:29:00,51.8,40.4,30.28,NNW,342,0.0,1.0,65,0.00,,---,0.00,VWS V14.01,2013-03-10 04:29:00,
2013-03-09 20:34:00,51.3,40.0,30.27,NNW,342,0.0,1.0,65,0.00,,---,0.00,VWS V14.01,2013-03-10 04:34:00,
2013-03-09 20:40:00,50.6,39.7,30.27,NNW,342,0.0,1.0,66,0.00,,---,0.00,VWS V14.01,2013-03-10 04:40:00,
2013-03-09 20:45:00,50.3,39.8,30.28,NNW,342,0.0,1.0,67,0.00,,---,0.00,VWS V14.01,2013-03-10 04:45:00,
2013-03-09 20:50:00,49.7,39.2,30.29,NNW,342,0.0,1.0,67,0.00,,---,0.00,VWS V14.01,2013-03-10 04:50:00,
2013-03-09 20:55:00,49.1,38.6,30.30,NNW,342,0.0,2.0,67,0.00,,---,0.00,VWS V14.01,2013-03-10 04:55:00,
2013-03-09 21:00:00,48.7,38.6,30.28,NNW,342,0.0,2.0,68,0.00,,---,0.00,VWS V14.01,2013-03-10 05:00:00,
2013-03-09 21:05:00,48.2,38.5,30.28,NNW,342,0.0,1.0,69,0.00,,---,0.00,VWS V14.01,2013-03-10 05:05:00,
2013-03-09 21:10:00,47.8,38.5,30.28,NNW,342,0.0,1.0,70,0.00,,---,0.00,VWS V14.01,2013-03-10 05:10:00,
2013-03-09 21:15:00,47.5,38.2,30.28,NNW,342,0.0,3.0,70,0.00,,---,0.00,VWS V14.01,2013-03-10 05:15:00,
2013-03-09 21:20:00,47.4,38.1,30.30,NNW,342,0.0,3.0,70,0.00,,---,0.00,VWS V14.01,2013-03-10 05:20:00,
2013-03-09 21:25:00,47.2,37.9,30.31,NNW,342,0.0,3.0,70,0.00,,---,0.00,VWS V14.01,2013-03-10 05:25:00,
2013-03-09 21:30:00,47.2,38.3,30.31,NNW,342,0.0,0.0,71,0.00,,---,0.00,VWS V14.01,2013-03-10 05:30:00,
2013-03-09 21:36:00,46.9,38.4,30.29,NNW,342,0.0,1.0,72,0.00,,---,0.00,VWS V14.01,2013-03-10 05:36:00,
2013-03-09 21:41:00,47.0,38.1,30.30,NNW,342,0.0,1.0,71,0.00,,---,0.00,VWS V14.01,2013-03-10 05:41:00,
2013-03-09 21:46:00,47.0,38.1,30.27,NNW,342,0.0,1.0,71,0.00,,---,0.00,VWS V14.01,2013-03-10 05:46:00,
2013-03-09 21:51:00,46.9,38.0,30.29,NNW,342,0.0,2.0,71,0.00,,---,0.00,VWS V14.01,2013-03-10 05:51:00,
2013-03-09 21:56:00,46.6,37.7,30.33,NNW,342,0.0,2.0,71,0.00,,---,0.00,VWS V14.01,2013-03-10 05:56:00,
2013-03-09 22:01:00,46.5,38.0,30.32,NNW,343,1.0,1.0,72,0.00,,---,0.00,VWS V14.01,2013-03-10 06:01:00,
2013-03-09 22:06:00,46.3,37.4,30.30,NNW,342,1.0,2.0,71,0.00,,---,0.00,VWS V14.01,2013-03-10 06:06:00,
2013-03-09 22:11:00,45.9,37.4,30.32,NNW,342,1.0,2.0,72,0.00,,---,0.00,VWS V14.01,2013-03-10 06:11:00,
2013-03-09 22:16:00,45.8,37.3,30.30,NNW,342,0.0,2.0,72,0.00,,---,0.00,VWS V14.01,2013-03-10 06:16:00,
2013-03-09 22:21:00,45.5,37.0,30.28,NNW,342,0.0,4.0,72,0.00,,---,0.00,VWS V14.01,2013-03-10 06:21:00,
2013-03-09 22:26:00,45.1,37.0,30.32,NNW,342,1.0,4.0,73,0.00,,---,0.00,VWS V14.01,2013-03-10 06:26:00,
2013-03-09 22:31:00,44.9,36.8,30.28,NNW,342,0.0,1.0,73,0.00,,---,0.00,VWS V14.01,2013-03-10 06:31:00,
2013-03-09 22:36:00,44.8,36.7,30.29,NNW,342,1.0,1.0,73,0.00,,---,0.00,VWS V14.01,2013-03-10 06:36:00,
2013-03-09 22:41:00,44.7,36.9,30.31,NNW,342,0.0,2.0,74,0.00,,---,0.00,VWS V14.01,2013-03-10 06:41:00,
2013-03-09 22:47:00,44.7,36.9,30.30,NNW,342,2.0,3.0,74,0.00,,---,0.00,VWS V14.01,2013-03-10 06:47:00,
2013-03-09 22:52:00,44.4,36.7,30.32,NNW,342,1.0,3.0,74,0.00,,---,0.00,VWS V14.01,2013-03-10 06:52:00,
2013-03-09 22:57:00,44.5,36.4,30.30,NNW,342,0.0,3.0,73,0.00,,---,0.00,VWS V14.01,2013-03-10 06:57:00,
2013-03-09 23:02:00,44.3,36.5,30.32,NNW,342,0.0,2.0,74,0.00,,---,0.00,VWS V14.01,2013-03-10 07:02:00,
2013-03-09 23:07:00,44.2,36.1,30.31,NNW,342,0.0,3.0,73,0.00,,---,0.00,VWS V14.01,2013-03-10 07:07:00,
2013-03-09 23:12:00,43.7,36.0,30.32,NNW,343,1.0,4.0,74,0.00,,---,0.00,VWS V14.01,2013-03-10 07:12:00,
2013-03-09 23:17:00,43.5,35.8,30.31,NNW,342,2.0,4.0,74,0.00,,---,0.00,VWS V14.01,2013-03-10 07:17:00,
2013-03-09 23:22:00,43.4,36.0,30.30,NNW,342,0.0,4.0,75,0.00,,---,0.00,VWS V14.01,2013-03-10 07:22:00,
2013-03-09 23:27:00,43.3,36.3,30.30,NNW,342,0.0,4.0,76,0.00,,---,0.00,VWS V14.01,2013-03-10 07:27:00,
2013-03-09 23:32:00,43.3,36.3,30.30,NNW,342,0.0,1.0,76,0.00,,---,0.00,VWS V14.01,2013-03-10 07:32:00,
2013-03-09 23:37:00,43.4,36.3,30.28,NNW,342,0.0,2.0,76,0.00,,---,0.00,VWS V14.01,2013-03-10 07:37:00,
2013-03-09 23:42:00,43.4,36.3,30.30,NNW,342,0.0,2.0,76,0.00,,---,0.00,VWS V14.01,2013-03-10 07:42:00,
2013-03-09 23:47:00,43.2,35.8,30.29,NNW,342,0.0,3.0,75,0.00,,---,0.00,VWS V14.01,2013-03-10 07:47:00,
2013-03-09 23:52:00,42.9,35.5,30.29,NNW,342,0.0,3.0,75,0.00,,---,0.00,VWS V14.01,2013-03-10 07:52:00,
2013-03-09 23:57:00,42.8,35.4,30.28,NNW,342,0.0,3.0,75,0.00,,---,0.00,VWS V14.01,2013-03-10 07:57:00,